Location: Newark
(45.4422°N, 16.2769°E)
Time: 17:45:29
(UTC+00:00)

Vanguard 2 - Pass Details

Date: 09 December 2019
Orbit: 553 x 2938 km, 32.9° (Epoch: 19 January)

Event Time Altitude Azimuth Distance (km) Brightness Sun altitude
Rises 07:50:21 0° 275° (W) 6,565 11.8 10.8°
Reaches altitude 10° 07:57:50 10° 256° (WSW) 5,166 11.5 11.7°
Maximum altitude 08:04:22 14° 229° (SW) 4,326 11.5 12.4°
Drops below altitude 10° 08:09:53 10° 201° (SSW) 4,213 11.8 13.0°
Sets 08:14:52 0° 178° (S) 4,702 12.6 13.5°
